,,PA_Meas_PMT16A,,PR_Meas_QMR101_102,,RH_Meas_QMH101,,SR_Meas_QMS101,,TA_Meas_QMH101,,GenWind,,GenWind,
time,status,PA,status,PR,status,RH,status,SR,status,TA,status,DirAvg,status,SpdAvg,
2014-11-06, 00:00:04,VALID,919.937,VALID,0,VALID,97.8542,VALID,0,VALID,19.7043,VALID,5,VALID,1.93125,
2014-11-06, 00:01:04,VALID,919.926,VALID,0,VALID,97.8542,VALID,0,VALID,19.6638,VALID,17,VALID,1.84375,
2014-11-06, 00:02:04,VALID,919.946,VALID,0,VALID,97.8542,VALID,0,VALID,19.6638,VALID,25,VALID,1.55859,
2014-11-06, 00:03:04,VALID,919.908,VALID,0,VALID,97.8618,VALID,0,VALID,19.6638,VALID,358,VALID,1.39492,
2014-11-06, 00:04:04,VALID,919.858,VALID,0,VALID,97.8465,VALID,0,VALID,19.6638,VALID,14,VALID,0.999609,
2014-11-06, 00:05:04,VALID,919.867,VALID,0,VALID,97.8465,VALID,0,VALID,19.7238,VALID,12,VALID,0.00585938,
2014-11-06, 00:06:04,VALID,919.852,VALID,0,VALID,97.8542,VALID,0,VALID,19.7043,VALID,358,VALID,0.847656,
2014-11-06, 00:07:04,VALID,919.844,VALID,0,VALID,97.8465,VALID,0,VALID,19.6833,VALID,18,VALID,0.922266,
2014-11-06, 00:08:04,VALID,919.837,VALID,0,VALID,97.8389,VALID,0.107441,VALID,19.7613,VALID,25,VALID,0.794922,
2014-11-06, 00:09:04,VALID,919.854,VALID,0,VALID,97.8389,VALID,0,VALID,19.7823,VALID,25,VALID,0,
2014-11-06, 00:10:04,VALID,919.832,VALID,0,VALID,97.8237,VALID,0,VALID,19.8213,VALID,15,VALID,0,
2014-11-06, 00:11:04,VALID,919.829,VALID,0,VALID,97.8389,VALID,0,VALID,19.7823,VALID,329,VALID,0,
2014-11-06, 00:12:04,VALID,919.828,VALID,0,VALID,97.8465,VALID,0,VALID,19.8018,VALID,329,VALID,0,
2014-11-06, 00:13:04,VALID,919.81,VALID,0,VALID,97.8542,VALID,0,VALID,19.8213,VALID,329,VALID,0,
2014-11-06, 00:14:04,VALID,919.812,VALID,0,VALID,97.8542,VALID,0,VALID,19.7628,VALID,343,VALID,0,
2014-11-06, 00:15:04,VALID,919.796,VALID,0,VALID,97.8465,VALID,0,VALID,19.7628,VALID,342,VALID,0,
2014-11-06, 00:16:04,VALID,919.761,VALID,0,VALID,97.8313,VALID,0,VALID,19.7628,VALID,342,VALID,0,
2014-11-06, 00:17:04,VALID,919.748,VALID,0,VALID,97.8618,VALID,0,VALID,19.7628,VALID,343,VALID,0,
2014-11-06, 00:18:04,VALID,919.744,VALID,0,VALID,97.8542,VALID,0,VALID,19.7628,VALID,343,VALID,0,
2014-11-06, 00:19:04,VALID,919.746,VALID,0,VALID,97.8618,VALID,0,VALID,19.7628,VALID,343,VALID,0,
2014-11-06, 00:20:04,VALID,919.708,VALID,0,VALID,97.8542,VALID,0,VALID,19.7628,VALID,343,VALID,0.034375,
2014-11-06, 00:21:04,VALID,919.707,VALID,0,VALID,97.8618,VALID,0,VALID,19.7628,VALID,343,VALID,0,
2014-11-06, 00:22:04,VALID,919.679,VALID,0,VALID,97.877,VALID,0,VALID,19.6848,VALID,343,VALID,0.603906,
2014-11-06, 00:23:04,VALID,919.669,VALID,0,VALID,97.877,VALID,0,VALID,19.6848,VALID,5,VALID,0.942969,
2014-11-06, 00:24:04,VALID,919.665,VALID,0,VALID,97.8694,VALID,0,VALID,19.6848,VALID,15,VALID,0.430469,
2014-11-06, 00:25:04,VALID,919.663,VALID,0,VALID,97.8542,VALID,0,VALID,19.7448,VALID,15,VALID,0,
2014-11-06, 00:26:04,VALID,919.652,VALID,0,VALID,97.8542,VALID,0,VALID,19.7628,VALID,12,VALID,0,
2014-11-06, 00:27:04,VALID,919.64,VALID,0,VALID,97.877,VALID,0,VALID,19.7043,VALID,12,VALID,0,
2014-11-06, 00:28:04,VALID,919.626,VALID,0,VALID,97.877,VALID,0,VALID,19.6848,VALID,12,VALID,0,
2014-11-06, 00:29:04,VALID,919.603,VALID,0,VALID,97.877,VALID,0,VALID,19.6653,VALID,12,VALID,0,
2014-11-06, 00:30:04,VALID,919.572,VALID,0,VALID,97.877,VALID,0,VALID,19.6653,VALID,12,VALID,0,
2014-11-06, 00:31:04,VALID,919.588,VALID,0,VALID,97.8923,VALID,0,VALID,19.6458,VALID,12,VALID,0,
2014-11-06, 00:32:04,VALID,919.569,VALID,0,VALID,97.9075,VALID,0,VALID,19.6458,VALID,12,VALID,0,
2014-11-06, 00:33:04,VALID,919.529,VALID,0,VALID,97.8694,VALID,0,VALID,19.6053,VALID,12,VALID,0,
2014-11-06, 00:34:04,VALID,919.548,VALID,0,VALID,97.8923,VALID,0,VALID,19.6248,VALID,12,VALID,0,
2014-11-06, 00:35:04,VALID,919.519,VALID,0,VALID,97.8847,VALID,0,VALID,19.6263,VALID,12,VALID,0,
2014-11-06, 00:36:04,VALID,919.503,VALID,0,VALID,97.8923,VALID,0,VALID,19.6263,VALID,12,VALID,0,
2014-11-06, 00:37:05,VALID,919.477,VALID,0,VALID,97.8999,VALID,0,VALID,19.5873,VALID,15,VALID,0,
2014-11-06, 00:38:05,VALID,919.482,VALID,0,VALID,97.9152,VALID,0,VALID,19.5483,VALID,15,VALID,0,
2014-11-06, 00:39:05,VALID,919.437,VALID,0,VALID,97.9152,VALID,0,VALID,19.5288,VALID,48,VALID,0.176563,
2014-11-06, 00:40:05,VALID,919.437,VALID,0,VALID,97.9304,VALID,0,VALID,19.5093,VALID,69,VALID,1.04648,
2014-11-06, 00:41:05,VALID,919.418,VALID,0,VALID,97.9152,VALID,0,VALID,19.4898,VALID,69,VALID,0.609766,
2014-11-06, 00:42:05,VALID,919.411,VALID,0,VALID,97.9304,VALID,0,VALID,19.4898,VALID,69,VALID,0.345703,
2014-11-06, 00:43:05,VALID,919.394,VALID,0,VALID,97.9152,VALID,0,VALID,19.4898,VALID,69,VALID,0.717578,
2014-11-06, 00:44:05,VALID,919.381,VALID,0,VALID,97.9152,VALID,0,VALID,19.4898,VALID,69,VALID,0.371094,
2014-11-06, 00:45:05,VALID,919.345,VALID,0,VALID,97.9075,VALID,0,VALID,19.4898,VALID,69,VALID,0,
2014-11-06, 00:46:05,VALID,919.343,VALID,0,VALID,97.938,VALID,0,VALID,19.4703,VALID,69,VALID,0,
2014-11-06, 00:47:05,VALID,919.327,VALID,0,VALID,97.9456,VALID,0,VALID,19.4703,VALID,69,VALID,0,
2014-11-06, 00:48:05,VALID,919.313,VALID,0,VALID,97.9228,VALID,0,VALID,19.4703,VALID,69,VALID,0,
2014-11-06, 00:49:05,VALID,919.305,VALID,0,VALID,97.9304,VALID,0,VALID,19.4703,VALID,69,VALID,0,
2014-11-06, 00:50:05,VALID,919.292,VALID,0,VALID,97.9152,VALID,0,VALID,19.4898,VALID,69,VALID,0,
2014-11-06, 00:51:05,VALID,919.299,VALID,0,VALID,97.9152,VALID,0,VALID,19.4898,VALID,69,VALID,0,
2014-11-06, 00:52:05,VALID,919.29,VALID,0,VALID,97.9304,VALID,0,VALID,19.4688,VALID,69,VALID,0.0796875,
2014-11-06, 00:53:05,VALID,919.319,VALID,0,VALID,97.9533,VALID,0,VALID,19.4703,VALID,69,VALID,0,
2014-11-06, 00:54:05,VALID,919.288,VALID,0,VALID,97.938,VALID,0,VALID,19.4688,VALID,69,VALID,0,
2014-11-06, 00:55:05,VALID,919.273,VALID,0,VALID,97.938,VALID,0,VALID,19.4898,VALID,69,VALID,0,
2014-11-06, 00:56:05,VALID,919.289,VALID,0,VALID,97.9304,VALID,0,VALID,19.4913,VALID,69,VALID,0,
2014-11-06, 00:57:05,VALID,919.292,VALID,0,VALID,97.8923,VALID,0,VALID,19.4898,VALID,69,VALID,0,
2014-11-06, 00:58:05,VALID,919.293,VALID,0,VALID,97.9152,VALID,0,VALID,19.4898,VALID,69,VALID,0,
2014-11-06, 00:59:05,VALID,919.284,VALID,0,VALID,97.9304,VALID,0,VALID,19.4883,VALID,69,VALID,0,
2014-11-06, 01:00:05,VALID,919.284,VALID,0,VALID,97.9304,VALID,0,VALID,19.5093,VALID,69,VALID,0.908203,
2014-11-06, 01:01:05,VALID,919.272,VALID,0,VALID,97.9228,VALID,0,VALID,19.5288,VALID,69,VALID,1.08711,
2014-11-06, 01:02:05,VALID,919.251,VALID,0,VALID,97.9152,VALID,0,VALID,19.5078,VALID,69,VALID,1.02617,
2014-11-06, 01:03:05,VALID,919.282,VALID,0,VALID,97.8999,VALID,0,VALID,19.5093,VALID,69,VALID,0.771484,
2014-11-06, 01:04:05,VALID,919.272,VALID,0,VALID,97.9152,VALID,0,VALID,19.5273,VALID,69,VALID,0.742578,
2014-11-06, 01:05:05,VALID,919.281,VALID,0,VALID,97.9228,VALID,0,VALID,19.5483,VALID,69,VALID,0.570703,
2014-11-06, 01:06:05,VALID,919.269,VALID,0,VALID,97.9228,VALID,0,VALID,19.5273,VALID,69,VALID,0.662109,
2014-11-06, 01:07:05,VALID,919.269,VALID,0,VALID,97.9228,VALID,0,VALID,19.5483,VALID,69,VALID,0.251953,
2014-11-06, 01:08:05,VALID,919.258,VALID,0,VALID,97.9228,VALID,0,VALID,19.5288,VALID,69,VALID,0,
2014-11-06, 01:09:05,VALID,919.252,VALID,0,VALID,97.9228,VALID,0,VALID,19.5483,VALID,69,VALID,0,
2014-11-06, 01:10:05,VALID,919.238,VALID,0,VALID,97.9533,VALID,0,VALID,19.5288,VALID,69,VALID,0,
2014-11-06, 01:11:05,VALID,919.244,VALID,0,VALID,97.9152,VALID,0,VALID,19.5483,VALID,69,VALID,0,
2014-11-06, 01:12:05,VALID,919.217,VALID,0,VALID,97.9228,VALID,0,VALID,19.5273,VALID,69,VALID,0,
2014-11-06, 01:13:05,VALID,919.232,VALID,0,VALID,97.9228,VALID,0,VALID,19.5483,VALID,69,VALID,0,
2014-11-06, 01:14:05,VALID,919.218,VALID,0,VALID,97.9304,VALID,0,VALID,19.5483,VALID,69,VALID,0,
2014-11-06, 01:15:05,VALID,919.254,VALID,0,VALID,97.9228,VALID,0,VALID,19.5873,VALID,69,VALID,0,
2014-11-06, 01:16:05,VALID,919.281,VALID,0,VALID,97.9075,VALID,0,VALID,19.5873,VALID,69,VALID,0,
2014-11-06, 01:17:05,VALID,919.241,VALID,0,VALID,97.9304,VALID,0,VALID,19.5678,VALID,69,VALID,0,
2014-11-06, 01:18:05,VALID,919.25,VALID,0,VALID,97.9304,VALID,0,VALID,19.5468,VALID,69,VALID,0.814453,
2014-11-06, 01:19:05,VALID,919.252,VALID,0,VALID,97.8999,VALID,0,VALID,19.5678,VALID,69,VALID,0.702344,
2014-11-06, 01:20:05,VALID,919.244,VALID,0,VALID,97.9228,VALID,0,VALID,19.5873,VALID,69,VALID,0.782031,
2014-11-06, 01:21:05,VALID,919.211,VALID,0,VALID,97.9075,VALID,0,VALID,19.5873,VALID,69,VALID,0.43125,
2014-11-06, 01:22:05,VALID,919.19,VALID,0,VALID,97.9152,VALID,0,VALID,19.5873,VALID,69,VALID,0.501172,
2014-11-06, 01:23:05,VALID,919.162,VALID,0,VALID,97.9228,VALID,0,VALID,19.5873,VALID,69,VALID,0.942578,
2014-11-06, 01:24:05,VALID,919.157,VALID,0,VALID,97.9075,VALID,0,VALID,19.5873,VALID,104,VALID,0.686328,
2014-11-06, 01:25:05,VALID,919.143,VALID,0,VALID,97.9304,VALID,0,VALID,19.5873,VALID,104,VALID,0.498828,
2014-11-06, 01:26:05,VALID,919.112,VALID,0,VALID,97.9228,VALID,0,VALID,19.5873,VALID,104,VALID,0.937109,
2014-11-06, 01:27:05,VALID,919.133,VALID,0,VALID,97.9304,VALID,0,VALID,19.5468,VALID,104,VALID,0.696094,
2014-11-06, 01:28:05,VALID,919.099,VALID,0,VALID,97.9304,VALID,0,VALID,19.5483,VALID,103,VALID,1.09766,
2014-11-06, 01:29:05,VALID,919.094,VALID,0,VALID,97.9228,VALID,0,VALID,19.5678,VALID,102,VALID,0.798437,
2014-11-06, 01:30:05,VALID,919.082,VALID,0,VALID,97.9304,VALID,0,VALID,19.5273,VALID,99,VALID,0.858984,
2014-11-06, 01:31:05,VALID,919.079,VALID,0,VALID,97.9228,VALID,0,VALID,19.5273,VALID,111,VALID,1.18672,
2014-11-06, 01:32:05,VALID,919.057,VALID,0,VALID,97.9456,VALID,0,VALID,19.5483,VALID,104,VALID,1.06719,
2014-11-06, 01:33:05,VALID,919.063,VALID,0,VALID,97.9228,VALID,0,VALID,19.5483,VALID,110,VALID,0.834766,
2014-11-06, 01:34:05,VALID,919.073,VALID,0,VALID,97.9304,VALID,0,VALID,19.5273,VALID,107,VALID,0.737891,
2014-11-06, 01:35:05,VALID,919.064,VALID,0,VALID,97.9304,VALID,0,VALID,19.5273,VALID,106,VALID,0.742969,
2014-11-06, 01:36:05,VALID,919.045,VALID,0,VALID,97.938,VALID,0,VALID,19.5483,VALID,113,VALID,0.641406,
2014-11-06, 01:37:05,VALID,919.057,VALID,0,VALID,97.9304,VALID,0,VALID,19.5483,VALID,98,VALID,0.574219,
2014-11-06, 01:38:05,VALID,919.056,VALID,0,VALID,97.938,VALID,0,VALID,19.5273,VALID,109,VALID,0,
2014-11-06, 01:39:05,VALID,919.056,VALID,0,VALID,97.9228,VALID,0,VALID,19.5483,VALID,110,VALID,0.136719,
2014-11-06, 01:40:05,VALID,919.078,VALID,0,VALID,97.9304,VALID,0,VALID,19.5483,VALID,100,VALID,0,
2014-11-06, 01:41:05,VALID,919.035,VALID,0,VALID,97.938,VALID,0,VALID,19.5483,VALID,103,VALID,0,
2014-11-06, 01:42:05,VALID,919.062,VALID,0,VALID,97.938,VALID,0.107441,VALID,19.5273,VALID,112,VALID,0,
2014-11-06, 01:43:05,VALID,919.029,VALID,0,VALID,97.9304,VALID,0,VALID,19.5483,VALID,113,VALID,0,
2014-11-06, 01:44:05,VALID,919.034,VALID,0,VALID,97.938,VALID,0,VALID,19.5483,VALID,118,VALID,0.564062,
2014-11-06, 01:45:05,VALID,918.994,VALID,0,VALID,97.9304,VALID,0,VALID,19.5678,VALID,116,VALID,0.000390625,
2014-11-06, 01:46:05,VALID,919.025,VALID,0,VALID,97.9456,VALID,0,VALID,19.5678,VALID,118,VALID,0,
2014-11-06, 01:47:05,VALID,919.005,VALID,0,VALID,97.9456,VALID,0,VALID,19.5873,VALID,119,VALID,0,
2014-11-06, 01:48:05,VALID,918.967,VALID,0,VALID,97.9533,VALID,0,VALID,19.5468,VALID,122,VALID,0.709375,
2014-11-06, 01:49:05,VALID,918.974,VALID,0,VALID,97.9685,VALID,0,VALID,19.5678,VALID,117,VALID,0.513672,
2014-11-06, 01:50:05,VALID,918.925,VALID,0,VALID,97.938,VALID,0,VALID,19.6083,VALID,127,VALID,0.735547,
2014-11-06, 01:51:05,VALID,918.905,VALID,0,VALID,97.9304,VALID,0,VALID,19.5873,VALID,127,VALID,0.274609,
2014-11-06, 01:52:05,VALID,918.932,VALID,0,VALID,97.9533,VALID,0,VALID,19.5873,VALID,127,VALID,0.669531,
2014-11-06, 01:53:05,VALID,918.901,VALID,0,VALID,97.9533,VALID,0,VALID,19.5663,VALID,133,VALID,0.729688,
2014-11-06, 01:54:05,VALID,918.888,VALID,0,VALID,97.9456,VALID,0,VALID,19.5873,VALID,134,VALID,0.6125,
2014-11-06, 01:55:05,VALID,918.889,VALID,0,VALID,97.938,VALID,0,VALID,19.5858,VALID,134,VALID,0,
2014-11-06, 01:56:05,VALID,918.837,VALID,0,VALID,97.9609,VALID,0,VALID,19.6068,VALID,134,VALID,0.791797,
2014-11-06, 01:57:05,VALID,918.805,VALID,0,VALID,97.9456,VALID,0,VALID,19.6068,VALID,140,VALID,0.717578,
2014-11-06, 01:58:05,VALID,918.794,VALID,0,VALID,97.938,VALID,0,VALID,19.6263,VALID,140,VALID,0.430078,
2014-11-06, 01:59:05,VALID,918.786,VALID,0,VALID,97.9228,VALID,0,VALID,19.6263,VALID,140,VALID,0,
2014-11-06, 02:00:05,VALID,918.764,VALID,0,VALID,97.9075,VALID,0,VALID,19.6458,VALID,139,VALID,0,
2014-11-06, 02:01:05,VALID,918.774,VALID,0,VALID,97.9533,VALID,0,VALID,19.6263,VALID,121,VALID,0.210156,
2014-11-06, 02:02:05,VALID,918.771,VALID,0,VALID,97.938,VALID,0,VALID,19.6263,VALID,132,VALID,0,
2014-11-06, 02:03:05,VALID,918.758,VALID,0,VALID,97.938,VALID,0,VALID,19.6068,VALID,132,VALID,0.00664063,
2014-11-06, 02:04:05,VALID,918.789,VALID,0,VALID,97.9456,VALID,0,VALID,19.6068,VALID,134,VALID,0.948047,
2014-11-06, 02:05:05,VALID,918.757,VALID,0,VALID,97.9304,VALID,0,VALID,19.5873,VALID,138,VALID,0.925,
2014-11-06, 02:06:05,VALID,918.776,VALID,0,VALID,97.938,VALID,0,VALID,19.5858,VALID,134,VALID,0.825781,
2014-11-06, 02:07:05,VALID,918.768,VALID,0,VALID,97.9304,VALID,0,VALID,19.6068,VALID,140,VALID,0.641406,
2014-11-06, 02:08:05,VALID,918.783,VALID,0,VALID,97.938,VALID,0,VALID,19.5858,VALID,144,VALID,0.574609,
2014-11-06, 02:09:05,VALID,918.783,VALID,0,VALID,97.9456,VALID,0,VALID,19.6068,VALID,142,VALID,0.657812,
2014-11-06, 02:10:05,VALID,918.771,VALID,0,VALID,97.9456,VALID,0,VALID,19.5858,VALID,139,VALID,1.01953,
2014-11-06, 02:11:05,VALID,918.744,VALID,0,VALID,97.9533,VALID,0,VALID,19.5858,VALID,138,VALID,1.05469,
2014-11-06, 02:12:05,VALID,918.73,VALID,0,VALID,97.938,VALID,0,VALID,19.6068,VALID,133,VALID,0.876562,
2014-11-06, 02:13:05,VALID,918.711,VALID,0,VALID,97.938,VALID,0,VALID,19.6263,VALID,146,VALID,0.638281,
2014-11-06, 02:14:05,VALID,918.743,VALID,0,VALID,97.938,VALID,0,VALID,19.6068,VALID,156,VALID,0.999219,
2014-11-06, 02:15:05,VALID,918.703,VALID,0,VALID,97.9533,VALID,0,VALID,19.6068,VALID,139,VALID,0.734375,
2014-11-06, 02:16:05,VALID,918.688,VALID,0,VALID,97.9456,VALID,0,VALID,19.6068,VALID,146,VALID,0.937109,
2014-11-06, 02:17:05,VALID,918.676,VALID,0,VALID,97.9304,VALID,0,VALID,19.6068,VALID,138,VALID,0.605859,
2014-11-06, 02:18:05,VALID,918.651,VALID,0,VALID,97.938,VALID,0,VALID,19.6068,VALID,154,VALID,1.08867,
2014-11-06, 02:19:05,VALID,918.63,VALID,0,VALID,97.9456,VALID,0,VALID,19.5858,VALID,146,VALID,0.729297,
2014-11-06, 02:20:05,VALID,918.624,VALID,0,VALID,97.9609,VALID,0,VALID,19.6278,VALID,132,VALID,0.607422,
2014-11-06, 02:21:05,VALID,918.583,VALID,0,VALID,97.9456,VALID,0,VALID,19.6068,VALID,140,VALID,0.623047,
2014-11-06, 02:22:05,VALID,918.553,VALID,0,VALID,97.9761,VALID,0,VALID,19.5873,VALID,134,VALID,0.984375,
2014-11-06, 02:23:05,VALID,918.536,VALID,0,VALID,97.9533,VALID,0,VALID,19.6068,VALID,130,VALID,0.682813,
2014-11-06, 02:24:05,VALID,918.517,VALID,0,VALID,97.9533,VALID,0,VALID,19.5858,VALID,137,VALID,0.794141,
2014-11-06, 02:25:05,VALID,918.492,VALID,0,VALID,97.9609,VALID,0,VALID,19.6068,VALID,147,VALID,0.787891,
2014-11-06, 02:26:05,VALID,918.47,VALID,0,VALID,97.9456,VALID,0,VALID,19.5858,VALID,147,VALID,0.773438,
2014-11-06, 02:27:05,VALID,918.43,VALID,0,VALID,97.9533,VALID,0,VALID,19.6068,VALID,141,VALID,0.459766,
2014-11-06, 02:28:05,VALID,918.427,VALID,0,VALID,97.9533,VALID,0,VALID,19.6068,VALID,140,VALID,0.254297,
2014-11-06, 02:29:05,VALID,918.411,VALID,0,VALID,97.9533,VALID,0,VALID,19.6068,VALID,140,VALID,0,
2014-11-06, 02:30:05,VALID,918.397,VALID,0,VALID,97.9456,VALID,0,VALID,19.6053,VALID,140,VALID,0,
2014-11-06, 02:31:05,VALID,918.369,VALID,0,VALID,97.9685,VALID,0,VALID,19.6068,VALID,140,VALID,0,
2014-11-06, 02:32:05,VALID,918.383,VALID,0,VALID,97.9456,VALID,0,VALID,19.6053,VALID,140,VALID,0,
2014-11-06, 02:33:05,VALID,918.364,VALID,0,VALID,97.9456,VALID,0,VALID,19.6068,VALID,140,VALID,0,
2014-11-06, 02:34:05,VALID,918.356,VALID,0,VALID,97.9609,VALID,0,VALID,19.6263,VALID,140,VALID,0,
2014-11-06, 02:35:05,VALID,918.352,VALID,0,VALID,97.9533,VALID,0,VALID,19.6053,VALID,140,VALID,0,
2014-11-06, 02:36:05,VALID,918.324,VALID,0,VALID,97.9456,VALID,0,VALID,19.6458,VALID,140,VALID,0,
2014-11-06, 02:37:05,VALID,918.335,VALID,0,VALID,97.938,VALID,0,VALID,19.6263,VALID,140,VALID,0,
2014-11-06, 02:38:05,VALID,918.308,VALID,0,VALID,97.9456,VALID,0,VALID,19.6263,VALID,140,VALID,0,
2014-11-06, 02:39:05,VALID,918.28,VALID,0,VALID,97.9685,VALID,0,VALID,19.6263,VALID,140,VALID,0,
2014-11-06, 02:40:05,VALID,918.294,VALID,0,VALID,97.9533,VALID,0,VALID,19.6263,VALID,140,VALID,0,
2014-11-06, 02:41:05,VALID,918.284,VALID,0,VALID,97.9609,VALID,0,VALID,19.6263,VALID,140,VALID,0,
2014-11-06, 02:42:05,VALID,918.264,VALID,0,VALID,97.938,VALID,0,VALID,19.6473,VALID,140,VALID,0,
2014-11-06, 02:43:05,VALID,918.258,VALID,0,VALID,97.9533,VALID,0,VALID,19.6263,VALID,140,VALID,0,
2014-11-06, 02:44:05,VALID,918.229,VALID,0,VALID,97.9533,VALID,0,VALID,19.6263,VALID,140,VALID,0,
2014-11-06, 02:45:05,VALID,918.222,VALID,0,VALID,97.9533,VALID,0,VALID,19.6263,VALID,140,VALID,0,
2014-11-06, 02:46:05,VALID,918.182,VALID,0,VALID,97.9533,VALID,0,VALID,19.6263,VALID,140,VALID,0,
2014-11-06, 02:47:05,VALID,918.167,VALID,0,VALID,97.9533,VALID,0,VALID,19.6668,VALID,140,VALID,0,
2014-11-06, 02:48:05,VALID,918.11,VALID,0,VALID,97.9609,VALID,0,VALID,19.6458,VALID,140,VALID,0,
2014-11-06, 02:49:05,VALID,918.135,VALID,0,VALID,97.9533,VALID,0,VALID,19.6248,VALID,133,VALID,0,
2014-11-06, 02:50:05,VALID,918.083,VALID,0,VALID,97.9456,VALID,0,VALID,19.6458,VALID,132,VALID,0,
2014-11-06, 02:51:05,VALID,918.075,VALID,0,VALID,97.9609,VALID,0,VALID,19.6263,VALID,132,VALID,0,
2014-11-06, 02:52:05,VALID,918.044,VALID,0,VALID,97.9609,VALID,0,VALID,19.6263,VALID,132,VALID,0,
2014-11-06, 02:53:05,VALID,918.062,VALID,0,VALID,97.9456,VALID,0,VALID,19.6053,VALID,127,VALID,0.165625,
2014-11-06, 02:54:05,VALID,918.03,VALID,0,VALID,97.9304,VALID,0,VALID,19.6068,VALID,129,VALID,0,
2014-11-06, 02:55:05,VALID,918.018,VALID,0,VALID,97.9456,VALID,0,VALID,19.6068,VALID,136,VALID,0,
2014-11-06, 02:56:05,VALID,918.017,VALID,0,VALID,97.9456,VALID,0,VALID,19.6068,VALID,142,VALID,0,
2014-11-06, 02:57:05,VALID,917.993,VALID,0,VALID,97.9533,VALID,0,VALID,19.6068,VALID,141,VALID,0.716797,
2014-11-06, 02:58:05,VALID,917.955,VALID,0,VALID,97.9685,VALID,0,VALID,19.5858,VALID,161,VALID,0.738672,
2014-11-06, 02:59:05,VALID,917.912,VALID,0,VALID,97.9761,VALID,0,VALID,19.6068,VALID,148,VALID,0.9375,
2014-11-06, 03:00:05,VALID,917.881,VALID,0,VALID,97.9533,VALID,0,VALID,19.6068,VALID,162,VALID,1.11836,
2014-11-06, 03:01:05,VALID,917.85,VALID,0,VALID,97.9533,VALID,0,VALID,19.6068,VALID,165,VALID,1.21133,
2014-11-06, 03:02:05,VALID,917.77,VALID,0,VALID,97.9533,VALID,0,VALID,19.5873,VALID,162,VALID,0.117578,
2014-11-06, 03:03:05,VALID,917.763,VALID,0,VALID,97.9533,VALID,0,VALID,19.5873,VALID,156,VALID,1.08008,
2014-11-06, 03:04:05,VALID,917.707,VALID,0,VALID,97.9609,VALID,0,VALID,19.6068,VALID,156,VALID,1.18672,
2014-11-06, 03:05:05,VALID,917.665,VALID,0,VALID,97.9533,VALID,0,VALID,19.6068,VALID,151,VALID,1.15117,
2014-11-06, 03:06:05,VALID,917.664,VALID,0,VALID,97.9456,VALID,0,VALID,19.5663,VALID,150,VALID,0.930859,
2014-11-06, 03:07:05,VALID,917.669,VALID,0,VALID,97.9685,VALID,0,VALID,19.5678,VALID,148,VALID,0.905078,
2014-11-06, 03:08:05,VALID,917.632,VALID,0,VALID,97.9609,VALID,0,VALID,19.5678,VALID,148,VALID,1.11445,
2014-11-06, 03:09:05,VALID,917.623,VALID,0,VALID,97.9685,VALID,0,VALID,19.5678,VALID,160,VALID,1.06992,
2014-11-06, 03:10:05,VALID,917.603,VALID,0,VALID,97.9685,VALID,0,VALID,19.5483,VALID,148,VALID,1.11719,
2014-11-06, 03:11:05,VALID,917.609,VALID,0,VALID,97.9456,VALID,0,VALID,19.5678,VALID,166,VALID,0.441797,
2014-11-06, 03:12:05,VALID,917.569,VALID,0,VALID,97.9761,VALID,0,VALID,19.5468,VALID,145,VALID,0.935547,
2014-11-06, 03:13:05,VALID,917.542,VALID,0,VALID,97.9838,VALID,0,VALID,19.5468,VALID,151,VALID,1.26758,
2014-11-06, 03:14:05,VALID,917.554,VALID,0,VALID,97.9609,VALID,0,VALID,19.5273,VALID,136,VALID,1.19687,
2014-11-06, 03:15:05,VALID,917.534,VALID,0,VALID,97.9609,VALID,0,VALID,19.5273,VALID,138,VALID,1.55859,
2014-11-06, 03:16:05,VALID,917.516,VALID,0,VALID,97.9533,VALID,0,VALID,19.5468,VALID,145,VALID,1.07148,
2014-11-06, 03:17:05,VALID,917.508,VALID,0,VALID,97.9609,VALID,0,VALID,19.5483,VALID,143,VALID,1.57344,
2014-11-06, 03:18:04,VALID,917.493,VALID,0,VALID,97.9761,VALID,0,VALID,19.5273,VALID,140,VALID,1.19297,
2014-11-06, 03:19:04,VALID,917.508,VALID,0,VALID,97.9685,VALID,0,VALID,19.5483,VALID,132,VALID,0.984766,
2014-11-06, 03:20:04,VALID,917.492,VALID,0,VALID,97.9761,VALID,0,VALID,19.5483,VALID,139,VALID,0.726563,
2014-11-06, 03:21:04,VALID,917.5,VALID,0,VALID,97.9685,VALID,0,VALID,19.5273,VALID,142,VALID,1.14375,
2014-11-06, 03:22:04,VALID,917.54,VALID,0,VALID,97.9685,VALID,0,VALID,19.5078,VALID,131,VALID,1.15937,
2014-11-06, 03:23:04,VALID,917.524,VALID,0,VALID,97.9685,VALID,0,VALID,19.4883,VALID,123,VALID,1.52969,
2014-11-06, 03:24:04,VALID,917.566,VALID,0,VALID,97.9761,VALID,0,VALID,19.5093,VALID,144,VALID,1.96172,
2014-11-06, 03:25:04,VALID,917.604,VALID,0,VALID,97.9838,VALID,0,VALID,19.5093,VALID,124,VALID,1.28359,
2014-11-06, 03:26:04,VALID,917.639,VALID,0,VALID,97.9761,VALID,0,VALID,19.4883,VALID,132,VALID,1.50586,
2014-11-06, 03:27:04,VALID,917.691,VALID,0,VALID,97.9609,VALID,0,VALID,19.5093,VALID,123,VALID,2.28047,
2014-11-06, 03:28:04,VALID,917.689,VALID,0,VALID,97.9685,VALID,0,VALID,19.5078,VALID,144,VALID,1.46367,
2014-11-06, 03:29:04,VALID,917.712,VALID,0,VALID,97.9914,VALID,0,VALID,19.5078,VALID,157,VALID,1.07578,
2014-11-06, 03:30:04,VALID,917.738,VALID,0,VALID,97.9761,VALID,0,VALID,19.5078,VALID,179,VALID,1.24336,
2014-11-06, 03:31:04,VALID,917.755,VALID,0,VALID,97.9761,VALID,0,VALID,19.5483,VALID,195,VALID,1.64805,
2014-11-06, 03:32:04,VALID,917.773,VALID,0,VALID,97.9761,VALID,0,VALID,19.5273,VALID,158,VALID,1.06641,
2014-11-06, 03:33:04,VALID,917.798,VALID,0,VALID,97.9609,VALID,0,VALID,19.5483,VALID,171,VALID,0.630469,
2014-11-06, 03:34:04,VALID,917.828,VALID,0,VALID,97.9838,VALID,0,VALID,19.5663,VALID,169,VALID,0.805078,
2014-11-06, 03:35:04,VALID,917.812,VALID,0,VALID,97.9609,VALID,0,VALID,19.5663,VALID,128,VALID,0.220703,
2014-11-06, 03:36:04,VALID,917.837,VALID,0,VALID,97.9685,VALID,0,VALID,19.5858,VALID,142,VALID,0.641797,
2014-11-06, 03:37:04,VALID,917.819,VALID,0,VALID,97.9456,VALID,0,VALID,19.6068,VALID,152,VALID,0.633594,
2014-11-06, 03:38:04,VALID,917.811,VALID,0,VALID,97.9533,VALID,0,VALID,19.6068,VALID,155,VALID,0,
2014-11-06, 03:39:04,VALID,917.814,VALID,0,VALID,97.9761,VALID,0,VALID,19.6068,VALID,167,VALID,0.831641,
2014-11-06, 03:40:04,VALID,917.833,VALID,0,VALID,97.9609,VALID,0,VALID,19.5858,VALID,173,VALID,0.745313,
2014-11-06, 03:41:04,VALID,917.821,VALID,0,VALID,97.9838,VALID,0,VALID,19.6263,VALID,173,VALID,0.0148437,
2014-11-06, 03:42:04,VALID,917.811,VALID,0,VALID,97.9533,VALID,0,VALID,19.6263,VALID,173,VALID,0,
2014-11-06, 03:43:04,VALID,917.827,VALID,0,VALID,97.9609,VALID,0,VALID,19.6053,VALID,173,VALID,0,
2014-11-06, 03:44:04,VALID,917.788,VALID,0,VALID,97.9609,VALID,0,VALID,19.6263,VALID,183,VALID,0.844531,
2014-11-06, 03:45:04,VALID,917.822,VALID,0,VALID,97.9533,VALID,0,VALID,19.6248,VALID,154,VALID,1.07656,
2014-11-06, 03:46:04,VALID,917.808,VALID,0,VALID,97.9609,VALID,0,VALID,19.6053,VALID,158,VALID,0.595703,
2014-11-06, 03:47:04,VALID,917.787,VALID,0,VALID,97.9685,VALID,0,VALID,19.6263,VALID,167,VALID,0.783203,
2014-11-06, 03:48:04,VALID,917.8,VALID,0,VALID,97.9685,VALID,0,VALID,19.6248,VALID,161,VALID,0.00742187,
2014-11-06, 03:49:04,VALID,917.808,VALID,0,VALID,97.938,VALID,0,VALID,19.6053,VALID,153,VALID,0.595312,
2014-11-06, 03:50:04,VALID,917.813,VALID,0,VALID,97.9533,VALID,0,VALID,19.6458,VALID,140,VALID,0.205859,